This is the latest recevied weather packets stored in our database for station/object KO5MO-4. If no packets are shown the sender has not sent any weather packets the latest 10 day(s).
| Time | Temp. | Humidity | Pressure | Rain* | Wind** | Luminosity | Snow |
|---|---|---|---|---|---|---|---|
| 1777357582 | 17.78° C | 29% | 1011.1 hPa | 0 mm | - | - | - |
| 1777352782 | 19.44° C | 26% | 1010.7 hPa | 0 mm | - | - | - |
| 1777351582 | 20° C | 25% | 1010.6 hPa | 0 mm | - | - | - |
| 1777350382 | 20.56° C | 24% | 1010.4 hPa | 0 mm | - | - | - |
| 1777347382 | 21.67° C | 22% | 1009.5 hPa | 0 mm | - | - | - |
| 1777346782 | 22.22° C | 22% | 1009.4 hPa | 0 mm | - | - | - |
| 1777346182 | 22.22° C | 21% | 1009.2 hPa | 0 mm | - | - | - |
| 1777345882 | 22.78° C | 21% | 1009.1 hPa | 0 mm | - | - | - |
| 1777345582 | 22.78° C | 21% | 1009 hPa | 0 mm | - | - | - |
| 1777345282 | 22.78° C | 21% | 1009 hPa | 0 mm | - | - | - |
| 1777341982 | 23.89° C | 20% | 1008.1 hPa | 0 mm | - | - | - |
| 1777341382 | 24.44° C | 19% | 1008.1 hPa | 0 mm | - | - | - |
| 1777340482 | 25° C | 19% | 1008.2 hPa | 0 mm | - | - | - |
| 1777340182 | 25.56° C | 19% | 1008.1 hPa | 0 mm | - | - | - |
| 1777339882 | 25.56° C | 19% | 1008 hPa | 0 mm | - | - | - |
| 1777339582 | 25.56° C | 20% | 1008 hPa | 0 mm | - | - | - |
| 1777338382 | 27.22° C | 18% | 1007.9 hPa | 0 mm | - | - | - |
| 1777338082 | 27.78° C | 18% | 1007.9 hPa | 0 mm | - | - | - |
| 1777337482 | 27.78° C | 18% | 1007.9 hPa | 0 mm | - | - | - |
| 1777333073 | 27.78° C | 16% | 1008.3 hPa | 0 mm | - | - | - |
| 1777326067 | 29.44° C | 17% | 1009 hPa | 0 mm | - | - | - |
| 1777325467 | 30.56° C | 16% | 1009.2 hPa | 0 mm | - | - | - |
| 1777325166 | 30.56° C | 16% | 1009.2 hPa | 0 mm | - | - | - |
| 1777324866 | 29.44° C | 16% | 1009.3 hPa | 0 mm | - | - | - |
| 1777323967 | 30° C | 16% | 1009.6 hPa | 0 mm | - | - | - |
* Rain latest hour (hover to see other rain measurements)
** Current wind speed in m/s (hover to see current wind gust speed)